EDT,Max TemperatureF,Mean TemperatureF,Min TemperatureF,Max Dew PointF,MeanDew PointF,Min DewpointF,Max Humidity, Mean Humidity, Min Humidity, Max Sea Level PressureIn, Mean Sea Level PressureIn, Min Sea Level PressureIn, Max VisibilityMiles, Mean VisibilityMiles, Min VisibilityMiles, Max Wind SpeedMPH, Mean Wind SpeedMPH, Max Gust SpeedMPH,PrecipitationIn, CloudCover, Events, WindDirDegrees
2013-10-1,82,68,54,59,56,52,93,68,42,30.12,30.07,30.03,10,10,9,12,4,13,0.00,2,,266
2013-10-2,84,70,56,60,57,54,93,66,39,30.14,30.09,30.05,10,10,7,9,2,12,0.00,1,,278
2013-10-3,84,72,60,62,59,56,90,65,40,30.12,30.09,30.05,10,10,9,13,4,16,0.00,4,,220
2013-10-4,87,74,60,62,60,58,97,67,37,30.13,30.09,30.05,10,10,5,8,4,10,0.00,1,,223
2013-10-5,88,75,62,64,62,60,93,67,40,30.12,30.07,30.02,10,9,6,9,2,14,0.00,3,,215
2013-10-6,84,74,63,67,62,59,87,67,47,30.04,29.98,29.91,10,10,7,13,8,17,0.00,3,,191
2013-10-7,74,67,59,70,64,49,93,78,63,30.02,29.88,29.81,10,9,1,29,9,37,0.86,7,Rain,219
2013-10-8,67,60,53,48,45,42,72,57,42,30.22,30.14,30.02,10,10,10,28,13,33,0.00,7,,41
2013-10-9,69,61,52,50,47,44,83,64,45,30.22,30.17,30.13,10,10,10,18,12,25,0.00,6,,28
2013-10-10,68,60,52,58,54,46,93,83,72,30.11,30.04,29.96,10,8,2,13,6,20,0.05,8,Rain,9
2013-10-11,71,66,60,61,58,56,90,76,61,29.97,29.95,29.92,10,10,10,10,3,18,0.00,8,,348
2013-10-12,69,64,58,63,59,55,93,81,68,30.10,30.03,29.97,10,9,2,13,5,16,0.01,6,Rain,16
2013-10-13,65,62,59,63,60,58,100,94,87,30.23,30.17,30.10,10,7,2,15,9,20,0.07,8,Rain,31
2013-10-14,65,62,58,59,57,55,93,86,78,30.26,30.22,30.19,10,7,1,15,9,18,0.03,8,Rain,35
2013-10-15,72,63,54,54,52,48,93,69,44,30.21,30.14,30.07,10,10,7,14,5,18,0.00,6,,37
2013-10-16,75,68,60,58,56,52,84,69,53,30.09,30.02,29.94,10,10,10,9,4,16,0.00,7,,306
2013-10-17,69,65,60,63,61,58,97,87,76,29.96,29.90,29.83,10,8,4,14,6,18,0.06,7,Rain,224
2013-10-18,70,61,51,63,51,42,93,68,42,30.04,29.96,29.88,10,9,4,9,3,13,0.00,5,,15
2013-10-19,61,57,53,58,55,51,100,93,86,29.97,29.90,29.84,10,6,0,10,3,13,0.03,7,Fog-Rain,232
2013-10-20,64,54,44,54,40,31,93,62,30,30.12,30.03,29.92,10,9,0,13,3,18,0.00,1,Fog,7
2013-10-21,68,53,37,48,43,37,92,67,42,30.16,30.08,29.99,10,10,10,13,4,16,0.00,4,,209
2013-10-22,67,60,53,56,52,49,100,76,52,29.99,29.90,29.79,10,9,3,9,6,14,T,7,,218
2013-10-23,66,54,41,57,44,28,100,64,28,30.01,29.78,29.70,10,7,0,29,12,36,T,5,Fog,295
2013-10-24,57,46,34,31,30,28,82,59,35,30.18,30.11,30.02,10,10,10,18,7,24,0.00,3,,298
2013-10-25,53,43,33,33,28,23,82,57,32,30.38,30.30,30.18,10,10,10,17,6,24,0.00,3,,336
2013-10-26,57,43,28,33,27,24,85,58,30,30.34,30.21,30.06,10,10,10,17,6,22,0.00,2,,236
2013-10-27,67,55,42,42,37,34,74,53,31,30.12,30.07,30.04,10,10,10,15,5,20,0.00,2,,261
2013-10-28,68,57,45,52,47,42,93,71,48,30.26,30.20,30.11,10,10,9,10,2,13,0.00,6,,324
2013-10-29,71,61,50,53,51,49,89,69,49,30.33,30.28,30.25,10,9,7,9,2,12,0.00,6,,93
2013-10-30,77,66,54,55,53,51,93,70,46,30.28,30.22,30.14,10,9,6,17,6,21,0.00,5,,215
2013-10-31,71,64,56,61,55,54,87,72,57,30.16,30.06,29.87,10,9,4,21,10,25,T,6,,198